GW3393 Weather Reports


Display with metric or nautical units.
time (UTC)temp
F
wind
direction
speed
MPH
gust
MPH
rain 1hr
in
rain 24hr
in
rain mn
in
humidity
%
barometer
mb
20260504050415 51 209 5.0 6.0 0.00 0.00 0.00 49 1016.7
20260504045912 51 204 3.0 7.0 0.00 0.00 0.00 49 1016.7
20260504045407 51 206 2.0 6.0 0.00 0.00 0.00 48 1016.6
20260504044904 51 225 4.0 6.0 0.00 0.00 0.00 49 1016.7
20260504044401 51 229 3.0 6.0 0.00 0.00 0.00 49 1016.7
20260504043859 51 194 5.0 8.0 0.00 0.00 0.00 49 1016.9
20260504043355 51 220 0.0 7.0 0.00 0.00 0.00 49 1016.6
20260504042853 50 275 2.0 7.0 0.00 0.00 0.00 50 1016.7
20260504042349 50 192 3.0 5.0 0.00 0.00 0.00 51 1016.8
20260504041845 50 220 3.0 4.0 0.00 0.00 0.00 51 1016.8
20260504041342 50 232 2.0 5.0 0.00 0.00 0.00 52 1016.9
20260504040838 50 210 4.0 4.0 0.00 0.00 0.00 52 1016.8
20260504040336 49 189 4.0 4.0 0.00 0.00 0.00 52 1016.6
20260504035831 49 232 3.0 3.0 0.00 0.00 0.00 52 1016.8
20260504035330 49 180 2.0 3.0 0.00 0.00 0.00 52 1016.7
20260504034826 49 162 0.0 4.0 0.00 0.00 0.00 52 1016.8
20260504034324 49 202 2.0 4.0 0.00 0.00 0.00 52 1016.8
20260504033821 49 216 3.0 4.0 0.00 0.00 0.00 52 1016.7
20260504033319 49 215 3.0 3.0 0.00 0.00 0.00 52 1016.8
20260504032815 49 248 2.0 3.0 0.00 0.00 0.00 53 1016.9
20260504032312 49 216 3.0 3.0 0.00 0.00 0.00 53 1016.8
20260504031809 49 196 2.0 5.0 0.00 0.00 0.00 53 1016.9
20260504031307 49 204 2.0 3.0 0.00 0.00 0.00 52 1016.7
20260504030802 49 173 1.0 3.0 0.00 0.00 0.00 52 1017.0
20260504030259 50 187 1.0 4.0 0.00 0.00 0.00 51 1016.9
20260504025755 50 183 2.0 3.0 0.00 0.00 0.00 49 1017.0
20260504025253 50 213 2.0 5.0 0.00 0.00 0.00 49 1017.1
20260504024749 50 180 0.0 3.0 0.00 0.00 0.00 52 1017.1
20260504024246 50 184 2.0 5.0 0.00 0.00 0.00 52 1017.1
20260504023743 49 285 1.0 3.0 0.00 0.00 0.00 53 1016.9
20260504023239 50 180 2.0 3.0 0.00 0.00 0.00 53 1017.0
20260504022735 50 213 2.0 4.0 0.00 0.00 0.00 52 1016.9
20260504022232 50 218 3.0 4.0 0.00 0.00 0.00 51 1017.0
20260504021729 50 225 2.0 3.0 0.00 0.00 0.00 50 1016.8
20260504021226 50 229 0.0 2.0 0.00 0.00 0.00 51 1017.0
20260504020723 51 180 2.0 2.0 0.00 0.00 0.00 49 1016.8
20260504020220 52 180 1.0 3.0 0.00 0.00 0.00 46 1016.8
20260504015716 52 237 3.0 5.0 0.00 0.00 0.00 46 1016.8
20260504015212 52 203 0.0 4.0 0.00 0.00 0.00 46 1017.0
20260504014708 52 219 3.0 4.0 0.00 0.00 0.00 45 1017.0
20260504014205 52 210 4.0 6.0 0.00 0.00 0.00 45 1016.9
20260504013703 53 251 2.0 3.0 0.00 0.00 0.00 45 1017.0
20260504013200 53 250 2.0 5.0 0.00 0.00 0.00 44 1017.0
20260504012656 53 270 3.0 6.0 0.00 0.00 0.00 44 1016.9
20260504012154 53 300 2.0 6.0 0.00 0.00 0.00 44 1016.9
20260504011651 53 256 3.0 5.0 0.00 0.00 0.00 44 1016.9
20260504011148 53 280 4.0 6.0 0.00 0.00 0.00 43 1016.9
20260504010643 53 207 3.0 5.0 0.00 0.00 0.00 43 1016.7
20260504010139 53 238 3.0 4.0 0.00 0.00 0.00 44 1016.9
20260504005637 53 231 2.0 5.0 0.00 0.00 0.00 43 1016.9
20260504005133 53 200 4.0 5.0 0.00 0.00 0.00 42 1016.9
20260504004632 54 270 1.0 5.0 0.00 0.00 0.00 43 1016.6
20260504004128 54 235 3.0 5.0 0.00 0.00 0.00 42 1016.9
20260504003624 54 252 3.0 5.0 0.00 0.00 0.00 42 1016.8
20260504003121 54 214 0.0 5.0 0.00 0.00 0.00 42 1016.8
20260504002618 54 226 4.0 5.0 0.00 0.00 0.00 41 1016.9
20260504002116 54 213 2.0 7.0 0.00 0.00 0.00 41 1016.6
20260504001614 54 238 3.0 9.0 0.00 0.00 0.00 40 1016.7
20260504001109 54 275 2.0 7.0 0.00 0.00 0.00 41 1016.7
20260504000607 55 243 3.0 6.0 0.00 0.00 0.00 41 1016.6
20260504000104 55 247 5.0 6.0 0.00 0.00 0.00 40 1016.8
20260503235602 55 232 8.0 8.0 0.00 0.00 0.00 40 1016.6
20260503235058 55 222 3.0 7.0 0.00 0.00 0.00 40 1016.8
20260503234556 55 195 5.0 9.0 0.00 0.00 0.00 39 1016.7
20260503234054 55 222 3.0 6.0 0.00 0.00 0.00 39 1016.7
20260503233550 55 268 5.0 6.0 0.00 0.00 0.00 39 1016.8
20260503233046 56 233 4.0 11.0 0.00 0.00 0.00 39 1016.8
20260503232544 56 251 7.0 10.0 0.00 0.00 0.00 38 1016.7
20260503232041 56 237 5.0 10.0 0.00 0.00 0.00 37 1016.9
20260503231539 56 243 8.0 11.0 0.00 0.00 0.00 37 1016.8
20260503231035 57 255 7.0 14.0 0.00 0.00 0.00 37 1016.7
20260503230532 57 276 5.0 14.0 0.00 0.00 0.00 37 1016.8
20260503230030 57 213 6.0 10.0 0.00 0.00 0.00 37 1016.8
20260503225526 57 202 5.0 8.0 0.00 0.00 0.00 36 1016.9
20260503225021 57 219 6.0 11.0 0.00 0.00 0.00 37 1016.7
20260503224519 58 212 7.0 11.0 0.00 0.00 0.00 36 1017.0
20260503224017 58 272 5.0 11.0 0.00 0.00 0.00 36 1016.9
20260503223515 58 255 7.0 16.0 0.00 0.00 0.00 35 1016.8
20260503223010 58 272 7.0 13.0 0.00 0.00 0.00 35 1017.1
20260503222508 58 233 4.0 15.0 0.00 0.00 0.00 36 1017.0
20260503222006 58 255 6.0 12.0 0.00 0.00 0.00 36 1016.9
20260503221504 58 199 2.0 13.0 0.00 0.00 0.00 37 1017.0
20260503221001 59 272 5.0 10.0 0.00 0.00 0.00 35 1017.1
20260503220457 58 252 14.0 15.0 0.00 0.00 0.00 35 1016.9
20260503215954 58 222 12.0 14.0 0.00 0.00 0.00 35 1017.0
20260503215451 58 222 10.0 15.0 0.00 0.00 0.00 35 1017.1
20260503214948 59 209 5.0 7.0 0.00 0.00 0.00 36 1017.0
20260503214447 58 150 6.0 16.0 0.00 0.00 0.00 35 1017.2
20260503213943 59 261 3.0 7.0 0.00 0.00 0.00 34 1016.9
20260503213442 59 222 6.0 13.0 0.00 0.00 0.00 34 1016.9
20260503212937 58 262 9.0 15.0 0.00 0.00 0.00 35 1016.9
20260503212435 59 223 6.0 9.0 0.00 0.00 0.00 35 1017.1
20260503211932 59 255 13.0 18.0 0.00 0.00 0.00 34 1016.9
20260503211429 60 265 2.0 7.0 0.00 0.00 0.00 36 1016.8
20260503210924 58 302 10.0 15.0 0.00 0.00 0.00 36 1016.8
20260503210422 58 278 6.0 12.0 0.00 0.00 0.00 35 1016.9
20260503205917 58 242 6.0 18.0 0.00 0.00 0.00 35 1017.0
20260503205414 59 227 9.0 10.0 0.00 0.00 0.00 35 1017.2
20260503204910 59 204 11.0 17.0 0.00 0.00 0.00 36 1017.1
20260503204408 59 207 6.0 13.0 0.00 0.00 0.00 35 1017.2
20260503203905 58 261 2.0 17.0 0.00 0.00 0.00 35 1017.2
20260503203402 59 217 5.0 15.0 0.00 0.00 0.00 35 1017.1
20260503202859 59 207 4.0 10.0 0.00 0.00 0.00 36 1017.4
20260503202357 58 236 9.0 15.0 0.00 0.00 0.00 34 1017.6
20260503201855 58 262 2.0 15.0 0.00 0.00 0.00 35 1017.5
20260503201352 59 230 9.0 17.0 0.00 0.00 0.00 35 1017.5
20260503200849 57 262 3.0 10.0 0.00 0.00 0.00 38 1017.6
20260503200345 58 267 3.0 6.0 0.00 0.00 0.00 37 1017.6
20260503195842 57 220 11.0 15.0 0.00 0.00 0.00 36 1017.6
20260503195339 57 277 5.0 10.0 0.00 0.00 0.00 36 1017.9
20260503194836 58 226 5.0 10.0 0.00 0.00 0.00 37 1017.9
20260503194332 58 227 10.0 18.0 0.00 0.00 0.00 35 1018.1
20260503193828 58 156 6.0 14.0 0.00 0.00 0.00 39 1018.3
20260503193324 57 213 7.0 16.0 0.00 0.00 0.00 35 1018.1
20260503192820 56 298 7.0 13.0 0.00 0.00 0.00 36 1018.4
20260503192316 56 297 3.0 7.0 0.00 0.00 0.00 37 1018.5
20260503191812 56 270 2.0 5.0 0.00 0.00 0.00 38 1018.5
20260503191310 55 239 7.0 9.0 0.00 0.00 0.00 38 1018.5
20260503190806 55 298 8.0 16.0 0.00 0.00 0.00 37 1018.3
20260503190303 56 291 5.0 12.0 0.00 0.00 0.00 38 1018.5
20260503185800 56 310 2.0 14.0 0.00 0.00 0.00 39 1018.6
20260503185256 55 8 6.0 16.0 0.00 0.00 0.00 38 1018.7
20260503184755 56 329 9.0 12.0 0.00 0.00 0.00 41 1018.6
20260503184252 55 312 7.0 12.0 0.00 0.00 0.00 39 1018.8
20260503183748 56 286 6.0 15.0 0.00 0.00 0.00 38 1018.8
20260503183246 57 297 7.0 15.0 0.00 0.00 0.00 38 1018.9
20260503182743 56 252 6.0 6.0 0.00 0.00 0.00 38 1019.0
20260503182242 55 277 6.0 16.0 0.00 0.00 0.00 40 1018.9
20260503181739 57 212 6.0 13.0 0.00 0.00 0.00 36 1019.1
20260503181236 55 315 6.0 13.0 0.00 0.00 0.00 38 1019.0
20260503180732 56 23 5.0 7.0 0.00 0.00 0.00 40 1018.8
20260503180231 55 221 9.0 13.0 0.00 0.00 0.00 39 1019.0
20260503175727 55 183 6.0 16.0 0.00 0.00 0.00 40 1019.1
20260503175225 54 209 4.0 16.0 0.00 0.00 0.00 38 1019.3
20260503174720 55 261 13.0 16.0 0.00 0.00 0.00 39 1019.3
20260503174218 55 265 6.0 22.0 0.00 0.00 0.00 38 1019.4
20260503173714 54 170 2.0 12.0 0.00 0.00 0.00 41 1019.4
20260503173210 54 247 12.0 20.0 0.00 0.00 0.00 40 1019.7
20260503172707 54 222 6.0 10.0 0.00 0.00 0.00 41 1019.5
20260503172204 54 264 6.0 21.0 0.00 0.00 0.00 38 1019.6
20260503171700 54 246 14.0 14.0 0.00 0.00 0.00 41 1019.5
20260503171158 53 218 5.0 19.0 0.00 0.00 0.00 40 1019.6
20260503170654 54 253 11.0 12.0 0.00 0.00 0.00 42 1019.6
20260503170151 53 221 12.0 22.0 0.00 0.00 0.00 40 1019.8
20260503160113 51 297 12.0 19.0 0.00 0.00 0.00 45 1020.5
20260503150542 48 254 4.0 16.0 0.00 0.00 0.00 48 1020.6
20260503130932 43 257 0.0 12.0 0.00 0.00 0.00 74 1020.8
20260503130430 42 270 5.0 6.0 0.00 0.00 0.00 76 1021.0
20260503110823 35 252 3.0 5.0 0.00 0.00 0.00 92 1020.0
20260503110319 35 210 4.0 5.0 0.00 0.00 0.00 92 1020.0
20260503100246 35 234 5.0 6.0 0.00 0.00 0.00 92 1019.1
20260503090205 35 219 2.0 5.0 0.00 0.00 0.00 91 1018.9
20260503081138 35 210 0.0 3.0 0.00 0.00 0.00 89 1018.9
20260503080634 35 212 3.0 5.0 0.00 0.00 0.00 88 1018.9
20260503080131 35 279 3.0 5.0 0.00 0.00 0.00 88 1018.9
20260503072608 37 254 3.0 6.0 0.00 0.00 0.00 86 1018.6
20260503072105 37 259 2.0 4.0 0.00 0.00 0.00 86 1018.5
20260503071602 37 255 5.0 7.0 0.00 0.00 0.00 86 1018.4
20260503071059 37 273 3.0 5.0 0.00 0.00 0.00 85 1018.4